Hourly Data Report for July 20, 2021

TORONTO INTL A
ONTARIO
Current Station Operator: NAVCAN

43°40'36.000" N
79°37'50.000" W
173.40 m
6158731
71624
YYZ

Download Data

Hourly Data (July 2021)
Hourly Data Report for July 20, 2021
TIME
LST
Temp Definition
°C
Dew Point Definition
°C
Rel Hum Definition
%
Precip. Amount Definition
mm

Wind Dir Definition
10's deg

Wind Spd Definition
km/h
Visibility Definition
km
Stn Press Definition
kPa
Hmdx Definition


Wind Chill Definition


Weather Definition


00:00 22.5 18.6 78   29 12 9.7 99.52 29   Haze
01:00 21.6 18.1 80   29 9 9.7 99.50 28   Haze
02:00 20.4 17.3 82   27 5 9.7 99.44 26   Haze
03:00 20.3 16.9 81   25 5 9.7 99.41 26   Haze
04:00 20.3 16.1 76   27 6 9.7 99.40 25   Haze
05:00 19.3 15.6 79   27 9 9.7 99.41     Haze
06:00 19.7 15.7 77   25 8 9.7 99.42     Haze
07:00 21.7 16.3 71   23 13 16.1 99.41 27   Mainly Clear
08:00 22.8 17.8 73   24 7 16.1 99.40 29   LegendNANA
09:00 25.2 18.0 64   20 9 12.9 99.35 31   LegendNANA
10:00 26.7 18.8 61   26 12 12.9 99.32 33   Mainly Clear
11:00 28.0 19.0 57   23 16 12.9 99.26 35   LegendNANA
12:00 28.5 19.4 57   26 20 12.9 99.23 36   LegendNANA
13:00 29.5 18.7 52   25 30 12.9 99.11 36   Mostly Cloudy
14:00 29.1 18.1 51   27 32 16.1 99.07 35   LegendNANA
15:00 29.4 17.7 49   29 27 16.1 99.07 35   LegendNANA
16:00 24.1 14.6 55   34 28 24.1 99.12 28   Mostly Cloudy
17:00 20.2 16.6 80   36 23 19.3 99.14 25   Thunderstorms,Rain Showers
18:00 20.6 17.9 84   33 14 24.1 99.20 27   LegendNANA
19:00
20:00 20.2 17.1 82   35 21 24.1 99.30 26   LegendNANA
21:00 19.6 16.9 84   34 20 24.1 99.31     LegendNANA
22:00 19.1 16.8 86   35 24 24.1 99.35     Mostly Cloudy
23:00 19.2 16.5 84   35 21 24.1 99.39     LegendNANA

Notes on Data Quality.

Legend

  • E = Estimated
  • M = Missing
  • NA = Not Available*
  • [empty] = Indicates an unobserved value
Date modified: